| time (UTC) | temp F | wind direction | speed MPH | gust MPH | rain 1hr in | rain 24hr in | rain mn in | humidity % | barometer mb |
| 20260507210527 | 53 | 112 | 0.0 | 1.0 | 0.00 | 0.00 | 0.00 | 86 | 1013.6 |
| 20260507205525 | 54 | 137 | 0.0 | 2.0 | 0.00 | 0.00 | 0.00 | 85 | 1013.7 |
| 20260507204523 | 55 | 122 | 1.0 | 2.0 | 0.00 | 0.00 | 0.00 | 83 | 1013.6 |
| 20260507203520 | 55 | 206 | 1.0 | 4.0 | 0.00 | 0.00 | 0.00 | 82 | 1013.5 |
| 20260507202518 | 55 | 120 | 1.0 | 2.0 | 0.00 | 0.00 | 0.00 | 83 | 1013.4 |
| 20260507201515 | 55 | 145 | 2.0 | 3.0 | 0.00 | 0.00 | 0.00 | 81 | 1013.4 |
| 20260507200533 | 55 | 26 | 0.0 | 2.0 | 0.00 | 0.00 | 0.00 | 80 | 1013.5 |
| 20260507195531 | 55 | 316 | 0.0 | 3.0 | 0.00 | 0.00 | 0.00 | 79 | 1013.5 |
| 20260507194528 | 56 | 62 | 0.0 | 1.0 | 0.00 | 0.00 | 0.00 | 75 | 1013.6 |
| 20260507193526 | 56 | 36 | 0.0 | 2.0 | 0.00 | 0.00 | 0.00 | 75 | 1013.4 |
| 20260507192524 | 56 | 0.0 | 0.0 | 0.00 | 0.00 | 0.00 | 80 | 1013.4 | |
| 20260507191521 | 56 | 0.0 | 1.0 | 0.00 | 0.00 | 0.00 | 80 | 1013.4 | |
| 20260507190519 | 56 | 31 | 1.0 | 2.0 | 0.00 | 0.00 | 0.00 | 81 | 1013.5 |
| 20260507185516 | 56 | 0.0 | 0.0 | 0.00 | 0.00 | 0.00 | 80 | 1013.3 | |
| 20260507184534 | 56 | 293 | 0.0 | 2.0 | 0.00 | 0.00 | 0.00 | 82 | 1013.2 |
| 20260507183531 | 56 | 0.0 | 1.0 | 0.00 | 0.00 | 0.00 | 82 | 1013.1 | |
| 20260507182529 | 56 | 295 | 0.0 | 2.0 | 0.00 | 0.00 | 0.00 | 82 | 1013.2 |
| 20260507181527 | 57 | 243 | 0.0 | 2.0 | 0.00 | 0.00 | 0.00 | 82 | 1013.1 |
| 20260507180524 | 57 | 68 | 0.0 | 2.0 | 0.00 | 0.00 | 0.00 | 82 | 1013.1 |
| 20260507175522 | 58 | 269 | 0.0 | 2.0 | 0.00 | 0.00 | 0.00 | 79 | 1013.0 |
| 20260507174519 | 58 | 197 | 1.0 | 5.0 | 0.00 | 0.00 | 0.00 | 79 | 1012.9 |
| 20260507173517 | 58 | 252 | 1.0 | 3.0 | 0.00 | 0.00 | 0.00 | 79 | 1013.0 |
| 20260507172535 | 58 | 174 | 0.0 | 3.0 | 0.00 | 0.00 | 0.00 | 76 | 1012.9 |
| 20260507171533 | 59 | 263 | 0.0 | 2.0 | 0.00 | 0.00 | 0.00 | 75 | 1013.0 |
| 20260507170530 | 59 | 168 | 2.0 | 5.0 | 0.00 | 0.00 | 0.00 | 74 | 1012.9 |
| 20260507165527 | 59 | 195 | 3.0 | 9.0 | 0.00 | 0.00 | 0.00 | 74 | 1012.9 |
| 20260507164525 | 59 | 187 | 2.0 | 4.0 | 0.00 | 0.00 | 0.00 | 74 | 1012.8 |
| 20260507163523 | 61 | 224 | 1.0 | 3.0 | 0.00 | 0.00 | 0.00 | 72 | 1012.8 |
| 20260507162520 | 61 | 208 | 1.0 | 5.0 | 0.00 | 0.00 | 0.00 | 72 | 1012.9 |
| 20260507161518 | 62 | 193 | 2.0 | 4.0 | 0.00 | 0.00 | 0.00 | 71 | 1013.0 |
| 20260507160515 | 62 | 180 | 3.0 | 7.0 | 0.00 | 0.00 | 0.00 | 69 | 1012.8 |
| 20260507155533 | 63 | 205 | 3.0 | 6.0 | 0.00 | 0.00 | 0.00 | 67 | 1012.8 |
| 20260507154531 | 62 | 181 | 3.0 | 8.0 | 0.00 | 0.00 | 0.00 | 68 | 1012.8 |
| 20260507153528 | 62 | 194 | 5.0 | 9.0 | 0.00 | 0.00 | 0.00 | 66 | 1012.7 |
| 20260507152526 | 63 | 164 | 3.0 | 8.0 | 0.00 | 0.00 | 0.00 | 67 | 1012.8 |
| 20260507151523 | 62 | 184 | 3.0 | 9.0 | 0.00 | 0.00 | 0.00 | 66 | 1012.8 |
| 20260507150521 | 63 | 207 | 2.0 | 6.0 | 0.00 | 0.00 | 0.00 | 66 | 1012.8 |
| 20260507145519 | 62 | 203 | 5.0 | 9.0 | 0.00 | 0.00 | 0.00 | 66 | 1013.0 |
| 20260507144516 | 62 | 183 | 6.0 | 12.0 | 0.00 | 0.00 | 0.00 | 66 | 1012.9 |
| 20260507143534 | 63 | 192 | 5.0 | 11.0 | 0.00 | 0.00 | 0.00 | 65 | 1012.9 |
| 20260507142531 | 64 | 233 | 4.0 | 10.0 | 0.00 | 0.00 | 0.00 | 63 | 1013.0 |
| 20260507141529 | 63 | 195 | 4.0 | 9.0 | 0.00 | 0.00 | 0.00 | 65 | 1013.1 |
| 20260507140527 | 63 | 182 | 6.0 | 13.0 | 0.00 | 0.00 | 0.00 | 64 | 1013.2 |
| 20260507135524 | 63 | 196 | 6.0 | 11.0 | 0.00 | 0.00 | 0.00 | 65 | 1013.3 |
| 20260507134522 | 62 | 189 | 6.0 | 12.0 | 0.00 | 0.00 | 0.00 | 64 | 1013.2 |
| 20260507133519 | 63 | 188 | 6.0 | 15.0 | 0.00 | 0.00 | 0.00 | 62 | 1013.3 |
| 20260507132517 | 64 | 213 | 5.0 | 15.0 | 0.00 | 0.00 | 0.00 | 59 | 1013.3 |
| 20260507131535 | 64 | 227 | 4.0 | 8.0 | 0.00 | 0.00 | 0.00 | 60 | 1013.5 |
| 20260507130532 | 65 | 207 | 4.0 | 8.0 | 0.00 | 0.00 | 0.00 | 60 | 1013.4 |
| 20260507125530 | 65 | 187 | 5.0 | 10.0 | 0.00 | 0.00 | 0.00 | 61 | 1013.4 |
| 20260507124527 | 64 | 172 | 4.0 | 12.0 | 0.00 | 0.00 | 0.00 | 62 | 1013.5 |
| 20260507123525 | 65 | 214 | 4.0 | 12.0 | 0.00 | 0.00 | 0.00 | 62 | 1013.3 |
| 20260507122523 | 64 | 219 | 3.0 | 10.0 | 0.00 | 0.00 | 0.00 | 62 | 1013.3 |
| 20260507121520 | 64 | 202 | 4.0 | 10.0 | 0.00 | 0.00 | 0.00 | 63 | 1013.4 |
| 20260507120518 | 62 | 225 | 3.0 | 7.0 | 0.00 | 0.00 | 0.00 | 65 | 1013.4 |
| 20260507115515 | 63 | 213 | 3.0 | 9.0 | 0.00 | 0.00 | 0.00 | 67 | 1013.5 |
| 20260507114533 | 63 | 144 | 5.0 | 12.0 | 0.00 | 0.00 | 0.00 | 64 | 1013.4 |
| 20260507113531 | 65 | 142 | 4.0 | 11.0 | 0.00 | 0.05 | 0.00 | 64 | 1013.5 |
| 20260507112528 | 65 | 148 | 3.0 | 8.0 | 0.00 | 0.10 | 0.00 | 65 | 1013.5 |
| 20260507111526 | 66 | 92 | 2.0 | 9.0 | 0.00 | 0.11 | 0.00 | 63 | 1013.5 |
| 20260507110523 | 63 | 224 | 2.0 | 6.0 | 0.00 | 0.16 | 0.00 | 68 | 1013.6 |
| 20260507105521 | 65 | 232 | 3.0 | 6.0 | 0.00 | 0.17 | 0.00 | 69 | 1013.7 |
| 20260507104519 | 64 | 188 | 6.0 | 11.0 | 0.00 | 0.17 | 0.00 | 71 | 1013.8 |
| 20260507103516 | 64 | 166 | 3.0 | 6.0 | 0.00 | 0.17 | 0.00 | 70 | 1013.9 |
| 20260507102534 | 64 | 206 | 4.0 | 7.0 | 0.00 | 0.20 | 0.00 | 69 | 1014.0 |
| 20260507101531 | 64 | 156 | 4.0 | 7.0 | 0.00 | 0.38 | 0.00 | 71 | 1013.9 |
| 20260507100529 | 63 | 281 | 2.0 | 4.0 | 0.00 | 0.46 | 0.00 | 69 | 1014.0 |
| 20260507095527 | 60 | 254 | 2.0 | 4.0 | 0.00 | 0.46 | 0.00 | 74 | 1014.0 |
| 20260507094524 | 62 | 233 | 3.0 | 6.0 | 0.00 | 0.46 | 0.00 | 75 | 1014.0 |
| 20260507093522 | 61 | 206 | 4.0 | 13.0 | 0.00 | 0.46 | 0.00 | 75 | 1014.0 |
| 20260507092519 | 61 | 227 | 3.0 | 7.0 | 0.00 | 0.46 | 0.00 | 75 | 1014.0 |
| 20260507091517 | 59 | 181 | 4.0 | 8.0 | 0.00 | 0.48 | 0.00 | 80 | 1014.0 |
| 20260507090535 | 60 | 180 | 5.0 | 9.0 | 0.00 | 0.48 | 0.00 | 80 | 1013.9 |
| 20260507085532 | 60 | 157 | 4.0 | 8.0 | 0.00 | 0.48 | 0.00 | 80 | 1014.0 |
| 20260507084530 | 60 | 155 | 3.0 | 8.0 | 0.00 | 0.48 | 0.00 | 80 | 1013.9 |
| 20260507083527 | 59 | 131 | 3.0 | 6.0 | 0.00 | 0.48 | 0.00 | 82 | 1013.9 |
| 20260507082525 | 59 | 155 | 4.0 | 8.0 | 0.00 | 0.48 | 0.00 | 82 | 1013.8 |
| 20260507081523 | 58 | 143 | 3.0 | 7.0 | 0.00 | 0.48 | 0.00 | 84 | 1013.8 |
| 20260507080520 | 57 | 157 | 3.0 | 7.0 | 0.00 | 0.49 | 0.00 | 84 | 1013.9 |
| 20260507075518 | 58 | 111 | 1.0 | 3.0 | 0.00 | 0.49 | 0.00 | 79 | 1013.8 |
| 20260507074516 | 57 | 157 | 3.0 | 7.0 | 0.00 | 0.49 | 0.00 | 82 | 1013.7 |
| 20260507073533 | 58 | 118 | 2.0 | 6.0 | 0.00 | 0.49 | 0.00 | 81 | 1013.5 |
| 20260507072531 | 56 | 100 | 2.0 | 4.0 | 0.00 | 0.49 | 0.00 | 84 | 1013.5 |
| 20260507071528 | 56 | 110 | 1.0 | 3.0 | 0.00 | 0.50 | 0.00 | 85 | 1013.5 |
| 20260507070526 | 55 | 122 | 2.0 | 4.0 | 0.00 | 0.50 | 0.00 | 85 | 1013.5 |
| 20260507065523 | 55 | 121 | 2.0 | 4.0 | 0.00 | 0.54 | 0.00 | 87 | 1013.4 |
| 20260507064521 | 55 | 151 | 2.0 | 5.0 | 0.00 | 0.67 | 0.00 | 85 | 1013.2 |
| 20260507063519 | 53 | 128 | 2.0 | 3.0 | 0.00 | 0.74 | 0.00 | 87 | 1013.1 |
| 20260507062516 | 54 | 106 | 2.0 | 5.0 | 0.00 | 0.78 | 0.00 | 87 | 1013.1 |
| 20260507061534 | 53 | 147 | 2.0 | 4.0 | 0.00 | 0.89 | 0.00 | 88 | 1013.1 |
| 20260507060532 | 53 | 78 | 2.0 | 4.0 | 0.00 | 0.94 | 0.00 | 88 | 1012.9 |
| 20260507055529 | 52 | 124 | 2.0 | 3.0 | 0.00 | 0.94 | 0.00 | 88 | 1012.9 |
| 20260507054527 | 51 | 107 | 1.0 | 3.0 | 0.00 | 0.95 | 0.00 | 89 | 1012.9 |
| 20260507053525 | 51 | 91 | 1.0 | 3.0 | 0.00 | 0.95 | 0.00 | 91 | 1012.8 |
| 20260507052522 | 50 | 119 | 1.0 | 3.0 | 0.00 | 0.98 | 0.00 | 93 | 1012.6 |
| 20260507051519 | 49 | 95 | 1.0 | 4.0 | 0.00 | 1.02 | 0.00 | 96 | 1012.6 |
| 20260507050517 | 48 | 113 | 1.0 | 2.0 | 0.00 | 1.06 | 0.00 | 97 | 1012.5 |
| 20260507045535 | 47 | 123 | 2.0 | 4.0 | 0.00 | 1.07 | 0.00 | 97 | 1012.4 |
| 20260507044532 | 47 | 77 | 1.0 | 2.0 | 0.00 | 1.11 | 0.00 | 97 | 1012.4 |
| 20260507043530 | 47 | 69 | 0.0 | 2.0 | 0.00 | 1.13 | 0.00 | 97 | 1012.3 |
| 20260507042527 | 47 | 0.0 | 1.0 | 0.00 | 1.16 | 0.00 | 97 | 1012.3 | |
| 20260507041525 | 46 | 320 | 0.0 | 2.0 | 0.00 | 1.17 | 0.00 | 97 | 1012.3 |
| 20260507040523 | 46 | 336 | 1.0 | 2.0 | 0.00 | 1.19 | 0.00 | 97 | 1012.1 |
| 20260507035520 | 46 | 267 | 1.0 | 3.0 | 0.00 | 1.24 | 0.00 | 97 | 1012.1 |
| 20260507034518 | 47 | 311 | 0.0 | 2.0 | 0.00 | 1.26 | 0.00 | 97 | 1012.2 |
| 20260507033515 | 46 | 302 | 1.0 | 3.0 | 0.00 | 1.26 | 0.00 | 97 | 1012.2 |
| 20260507032533 | 47 | 275 | 0.0 | 2.0 | 0.00 | 1.26 | 0.00 | 97 | 1012.2 |
| 20260507031531 | 47 | 354 | 1.0 | 2.0 | 0.00 | 1.28 | 0.00 | 97 | 1012.1 |
| 20260507030528 | 47 | 299 | 0.0 | 2.0 | 0.00 | 1.29 | 0.00 | 97 | 1012.2 |
| 20260507025526 | 47 | 1 | 1.0 | 3.0 | 0.00 | 1.30 | 0.00 | 97 | 1012.2 |
| 20260507024524 | 47 | 259 | 1.0 | 2.0 | 0.00 | 1.31 | 0.00 | 97 | 1012.2 |
| 20260507023521 | 48 | 71 | 1.0 | 2.0 | 0.00 | 1.33 | 0.00 | 98 | 1012.2 |
| 20260507022518 | 48 | 106 | 0.0 | 2.0 | 0.00 | 1.35 | 0.00 | 98 | 1012.3 |
| 20260507021516 | 48 | 31 | 1.0 | 2.0 | 0.00 | 1.35 | 0.00 | 98 | 1012.3 |
| 20260507020534 | 48 | 314 | 1.0 | 2.0 | 0.00 | 1.42 | 0.00 | 98 | 1012.3 |
| 20260507015531 | 48 | 123 | 0.0 | 2.0 | 0.00 | 1.47 | 0.00 | 98 | 1012.2 |
| 20260507014529 | 49 | 343 | 1.0 | 2.0 | 0.00 | 1.47 | 0.00 | 98 | 1012.2 |
| 20260507013526 | 49 | 74 | 1.0 | 2.0 | 0.00 | 1.47 | 0.00 | 98 | 1012.3 |
| 20260507012524 | 49 | 8 | 2.0 | 3.0 | 0.00 | 1.47 | 0.00 | 98 | 1012.2 |
| 20260507011522 | 50 | 31 | 1.0 | 2.0 | 0.00 | 1.47 | 0.00 | 98 | 1012.2 |
| 20260507010519 | 50 | 78 | 1.0 | 2.0 | 0.00 | 1.47 | 0.00 | 98 | 1012.3 |
| 20260507005517 | 50 | 346 | 0.0 | 2.0 | 0.00 | 1.50 | 0.00 | 97 | 1012.3 |
| 20260507004535 | 49 | 314 | 0.0 | 1.0 | 0.00 | 1.56 | 0.00 | 97 | 1012.2 |
| 20260507003532 | 50 | 0.0 | 2.0 | 0.00 | 1.65 | 0.00 | 97 | 1012.2 | |
| 20260507002529 | 50 | 0.0 | 1.0 | 0.00 | 1.70 | 0.00 | 97 | 1012.1 | |
| 20260507001527 | 50 | 247 | 0.0 | 2.0 | 0.00 | 1.74 | 0.00 | 97 | 1012.2 |
| 20260507000525 | 50 | 35 | 0.0 | 2.0 | 0.00 | 1.78 | 0.00 | 97 | 1012.3 |
| 20260506235522 | 50 | 320 | 0.0 | 2.0 | 0.00 | 1.80 | 0.00 | 96 | 1012.2 |
| 20260506234520 | 50 | 57 | 1.0 | 2.0 | 0.00 | 1.80 | 0.00 | 96 | 1012.3 |
| 20260506233518 | 50 | 257 | 0.0 | 2.0 | 0.00 | 1.80 | 0.00 | 96 | 1012.3 |
| 20260506232515 | 50 | 0.0 | 1.0 | 0.00 | 1.81 | 0.00 | 96 | 1012.3 | |
| 20260506231533 | 51 | 303 | 0.0 | 2.0 | 0.00 | 1.93 | 0.00 | 96 | 1012.3 |
| 20260506230531 | 51 | 329 | 1.0 | 3.0 | 0.00 | 2.10 | 0.00 | 96 | 1012.3 |
| 20260506225528 | 51 | 57 | 1.0 | 2.0 | 0.00 | 2.17 | 0.00 | 96 | 1012.4 |
| 20260506224526 | 51 | 42 | 1.0 | 2.0 | 0.00 | 2.34 | 0.00 | 96 | 1012.4 |
| 20260506223523 | 51 | 320 | 0.0 | 2.0 | 0.00 | 2.35 | 0.00 | 96 | 1012.4 |
| 20260506222521 | 51 | 37 | 0.0 | 2.0 | 0.00 | 2.35 | 0.00 | 95 | 1012.3 |
| 20260506221518 | 52 | 318 | 0.0 | 2.0 | 0.00 | 2.35 | 0.00 | 95 | 1012.4 |
| 20260506220516 | 52 | 0.0 | 2.0 | 0.00 | 2.35 | 0.00 | 95 | 1012.4 | |
| 20260506215534 | 52 | 11 | 0.0 | 2.0 | 0.00 | 2.35 | 2.35 | 95 | 1012.4 |
| 20260506214531 | 52 | 322 | 1.0 | 2.0 | 0.00 | 2.36 | 2.35 | 95 | 1012.2 |
| 20260506213529 | 51 | 301 | 0.0 | 2.0 | 0.00 | 2.37 | 2.35 | 94 | 1012.3 |
| 20260506212526 | 52 | 301 | 0.0 | 2.0 | 0.00 | 2.41 | 2.35 | 95 | 1012.2 |
| 20260506211524 | 52 | 72 | 0.0 | 1.0 | 0.00 | 2.46 | 2.35 | 94 | 1012.2 |